Home   Weather   Concord   Past weeks

Flag for USA Past Weather in Concord, California, USA — Yesterday and Last 2 Weeks

Now
51 °F

Sunny.


Feels Like: 49 °F
Forecast: 40 / 55 °F
Wind: 6 mph from Northwest

Location: Buchanan Field

Current Time: Feb 23, 2017 at 12:48:41 pm

Latest Report: Feb 23, 2017 at 11:53 am


Visibility: 10 mi

Pressure: 30.19 "Hg

Humidity: 48%

Dew Point: 32 °F

Location of ConcordLocation

Past Weather in Concord — Graph

°F

Concord Temperature Yesterday

Maximum temperature yesterday: 56 °F (at 2:53 pm)
Minimum temperature yesterday: 42 °F (at 3:53 am)
Average temperature yesterday: 48 °F

High & Low Weather Summary for the Past Weeks

 TemperatureHumidityPressure
High67 °F (Feb 14, 2:53 pm)100% (Feb 10, 3:29 am)30.23 "Hg (Feb 10, 3:29 am)
Low40 °F (Feb 23, 6:53 am)32% (Feb 12, 11:53 am)29.13 "Hg (Feb 17, 4:53 pm)
Average55 °F79%29.94 "Hg
* Reported Feb 8 10:04 am — Feb 23 10:53 am, Concord, Weather by CustomWeather, © 2017

Note: Actual official high and low records may vary slightly from our data, if they occured in-between our weather recording intervals... More about our weather records

Advertising

Concord Weather History for the Previous 24 Hours

Scroll right to see more
 ConditionsComfort  
Time TempWeatherWind HumidityBarometerVisibility
10:53 am
Thu, Feb 23
50 °FSunny.7 mph57%30.20 "Hg10 mi
9:53 am47 °FSunny.5 mph61%30.21 "Hg10 mi
8:53 am45 °FSunny.7 mph63%30.20 "Hg10 mi
7:53 am42 °FSunny.No wind71%30.19 "Hg10 mi
6:53 am40 °FSunny.3 mph77%30.17 "Hg10 mi
5:53 am41 °FClear.5 mph74%30.16 "Hg10 mi
4:53 am42 °FClear.3 mph71%30.16 "Hg10 mi
3:53 am42 °FClear.5 mph71%30.15 "Hg10 mi
2:53 am43 °FClear.8 mph71%30.15 "Hg10 mi
1:53 am44 °FClear.14 mph65%30.15 "Hg10 mi
12:53 am44 °FClear.10 mph65%30.16 "Hg10 mi
11:53 pm
Wed, Feb 22
45 °FClear.14 mph63%30.16 "Hg10 mi
10:53 pm46 °FClear.7 mph66%30.16 "Hg10 mi
9:53 pm46 °FClear.13 mph68%30.16 "Hg10 mi
8:53 pm46 °FClear.13 mph71%30.16 "Hg10 mi
7:53 pm47 °FPassing clouds.15 mph69%30.14 "Hg10 mi
6:53 pm48 °FClear.10 mph61%30.15 "Hg10 mi
5:53 pm50 °FSunny.12 mph61%30.14 "Hg10 mi
4:53 pm51 °FPassing clouds.18 mph59%30.16 "Hg10 mi
3:53 pm55 °FSunny.18 mph53%30.14 "Hg10 mi
2:53 pm56 °FSunny.12 mph49%30.15 "Hg10 mi
1:53 pm55 °FSunny.13 mph53%30.16 "Hg10 mi
12:53 pm54 °FSunny.18 mph55%30.18 "Hg10 mi
Weather by CustomWeather, © 2017

See weather overviewHow to use our weather pages